Flag for Germany Weather past 2 weeks in Waren (Müritz), Mecklenburg-Western Pomerania, Germany

Now
57 °F

Scattered showers. Passing clouds.


Feels Like: 55 °F
Forecast: 46 / 69 °F
Wind: 10 mph from Southwest

Location: Laage

Current Time: Aug 20, 2014 at 4:44:39 PM

Latest Report: Aug 20, 2014 at 3:20 PM


Visibility: N/A

Pressure: 29.86 "Hg

Humidity: 88%

Dew point: 54 °F

Location of Waren (Müritz)Location

Historic Weather in Waren (Müritz) — Graph

°F

Waren (Müritz) temperature yesterday

Maximum temperature yesterday: 63 °F (at 3:20 PM)
Minimum temperature yesterday: 52 °F (at 6:20 AM)
Average temperature yesterday: 57 °F

Past Weeks' High & Low Weather Summary

 TemperatureHumidityPressure
High75 °F (Aug 7, 11:20 AM)100% (Aug 7, 2:20 AM)30.04 "Hg (Aug 7, 2:20 AM)
Low52 °F (Aug 13, 5:20 AM)41% (Aug 11, 4:59 PM)29.47 "Hg (Aug 18, 2:20 PM)
Average63 °F76%29.81 "Hg
* Reported Aug 5 3:20 PM — Aug 20 3:20 PM, Waren (Müritz), Weather by CustomWeather, © 2014

Note: Actual official high and low records may vary slightly from our data, if they occured in-between our weather recording intervals... More about our weather records

Advertising

Waren (Müritz) weather history for previous 24 hours

 ConditionsComfort  
Time TempWeatherWind HumidityBarometerVisibility
3:20 PM
Aug 20
57 °FScattered showers. Passing clouds.10 mph88%29.86 "HgN/A
2:20 PM55 °FSprinkles. Broken clouds.14 mph88%29.86 "HgN/A
1:20 PM61 °FBroken clouds.17 mph63%29.86 "HgN/A
12:20 PM61 °FBroken clouds.17 mph63%29.83 "HgN/A
11:20 AM59 °FSprinkles. Broken clouds.18 mph68%29.83 "HgN/A
10:20 AM57 °FBroken clouds.17 mph72%29.80 "HgN/A
9:20 AM55 °FBroken clouds.16 mph77%29.80 "HgN/A
8:20 AM54 °FBroken clouds.13 mph82%29.80 "HgN/A
7:20 AM52 °FPartly sunny.13 mph88%29.77 "HgN/A
6:20 AM52 °FPassing clouds.12 mph88%29.77 "HgN/A
5:20 AM52 °FPassing clouds.12 mph82%29.77 "HgN/A
4:20 AM52 °FPassing clouds.13 mph82%29.74 "HgN/A
3:20 AM52 °FPartly cloudy.13 mph88%29.74 "HgN/A
2:20 AM52 °FPassing clouds.14 mph94%29.74 "HgN/A
1:20 AM54 °FLight rain. Passing clouds.13 mph82%29.74 "HgN/A
12:20 AM54 °FPassing clouds.10 mph82%29.74 "HgN/A
11:20 PM
Aug 19
54 °FPassing clouds.9 mph82%29.74 "HgN/A
10:20 PM52 °FPassing clouds.12 mph82%29.74 "HgN/A
9:20 PM55 °FPassing clouds.8 mph77%29.74 "HgN/A
8:20 PM55 °FPartly sunny.7 mph77%29.71 "HgN/A
7:20 PM61 °FBroken clouds.15 mph63%29.71 "HgN/A
6:20 PM63 °FPartly sunny.12 mph59%29.71 "HgN/A
5:20 PM63 °FPartly sunny.13 mph59%29.71 "HgN/A
4:20 PM63 °FPartly sunny.14 mph59%29.71 "HgN/A
Weather by CustomWeather, © 2014

See weather overviewHow to use our weather pages